Time,TemperatureF,DewpointF,PressureIn,WindDirection,WindDirectionDegrees,WindSpeedMPH,WindSpeedGustMPH,Humidity,HourlyPrecipIn,Conditions,Clouds,dailyrainin,SoftwareType,DateUTC
2013-10-30 00:01:00,50.1,42.5,30.32,SE,142,0.0,0.0,75,0.00,,---,0.00,VWS V14.01,2013-10-30 04:01:00,
2013-10-30 00:02:00,50.1,42.5,30.32,SE,131,0.0,0.0,75,0.00,,---,0.00,VWS V14.01,2013-10-30 04:02:00,
2013-10-30 00:03:00,50.1,42.2,30.32,SE,136,0.0,0.0,74,0.00,,---,0.00,VWS V14.01,2013-10-30 04:03:00,
2013-10-30 00:05:00,50.1,42.2,30.32,SE,138,0.0,0.0,74,0.00,,---,0.00,VWS V14.01,2013-10-30 04:05:00,
2013-10-30 00:10:00,50.1,42.2,30.32,SE,129,0.0,0.0,74,0.00,,---,0.00,VWS V14.01,2013-10-30 04:10:00,
2013-10-30 00:15:00,50.1,42.2,30.31,ESE,116,0.0,0.0,74,0.00,,---,0.00,VWS V14.01,2013-10-30 04:15:00,
2013-10-30 00:20:00,50.0,42.0,30.31,SE,130,0.0,0.0,74,0.00,,---,0.00,VWS V14.01,2013-10-30 04:20:00,
2013-10-30 00:25:00,49.9,42.0,30.31,SE,134,0.0,0.0,74,0.00,,---,0.00,VWS V14.01,2013-10-30 04:25:00,
2013-10-30 00:30:00,49.8,42.2,30.31,SE,140,0.0,0.0,75,0.00,,---,0.00,VWS V14.01,2013-10-30 04:30:00,
2013-10-30 00:35:00,49.7,42.1,30.31,SE,144,1.0,1.0,75,0.00,,---,0.00,VWS V14.01,2013-10-30 04:35:00,
2013-10-30 00:41:00,49.7,42.1,30.31,SE,143,0.0,1.0,75,0.00,,---,0.00,VWS V14.01,2013-10-30 04:41:00,
2013-10-30 00:46:00,49.7,42.1,30.30,SE,131,0.0,0.0,75,0.00,,---,0.00,VWS V14.01,2013-10-30 04:46:00,
2013-10-30 00:51:00,49.8,42.2,30.31,ESE,118,1.0,1.0,75,0.00,,---,0.00,VWS V14.01,2013-10-30 04:51:00,
2013-10-30 00:56:00,49.9,42.0,30.30,ESE,107,0.0,1.0,74,0.00,,---,0.00,VWS V14.01,2013-10-30 04:56:00,
2013-10-30 01:01:00,49.9,42.3,30.31,ESE,110,0.0,1.0,75,0.00,,---,0.00,VWS V14.01,2013-10-30 05:01:00,
2013-10-30 01:06:00,49.8,42.2,30.30,ESE,122,1.0,2.0,75,0.00,,---,0.00,VWS V14.01,2013-10-30 05:06:00,
2013-10-30 01:11:00,49.7,42.1,30.30,ESE,119,1.0,2.0,75,0.00,,---,0.00,VWS V14.01,2013-10-30 05:11:00,
2013-10-30 01:16:00,49.6,42.0,30.30,SE,128,1.0,2.0,75,0.00,,---,0.00,VWS V14.01,2013-10-30 05:16:00,
2013-10-30 01:21:00,49.4,42.2,30.29,SE,125,1.0,2.0,76,0.00,,---,0.00,VWS V14.01,2013-10-30 05:21:00,
2013-10-30 01:26:00,49.3,42.1,30.29,ESE,121,1.0,1.0,76,0.00,,---,0.00,VWS V14.01,2013-10-30 05:26:00,
2013-10-30 01:32:00,49.1,42.2,30.29,ESE,121,2.0,2.0,77,0.00,,---,0.00,VWS V14.01,2013-10-30 05:32:00,
2013-10-30 01:37:00,49.0,42.1,30.29,SE,129,2.0,2.0,77,0.00,,---,0.00,VWS V14.01,2013-10-30 05:37:00,
2013-10-30 01:42:00,48.9,42.0,30.29,SE,132,1.0,2.0,77,0.00,,---,0.00,VWS V14.01,2013-10-30 05:42:00,
2013-10-30 01:47:00,48.8,41.9,30.29,ESE,115,1.0,2.0,77,0.00,,---,0.00,VWS V14.01,2013-10-30 05:47:00,
2013-10-30 01:52:00,48.8,41.9,30.29,ESE,121,0.0,2.0,77,0.00,,---,0.00,VWS V14.01,2013-10-30 05:52:00,
2013-10-30 01:57:00,48.7,42.2,30.28,SE,134,1.0,2.0,78,0.00,,---,0.00,VWS V14.01,2013-10-30 05:57:00,
2013-10-30 02:02:00,48.6,42.1,30.28,SE,124,1.0,2.0,78,0.00,,---,0.00,VWS V14.01,2013-10-30 06:02:00,
2013-10-30 02:07:00,48.5,42.0,30.28,SE,128,1.0,2.0,78,0.00,,---,0.00,VWS V14.01,2013-10-30 06:07:00,
2013-10-30 02:12:00,48.4,42.2,30.28,ESE,122,1.0,2.0,79,0.00,,---,0.00,VWS V14.01,2013-10-30 06:12:00,
2013-10-30 02:17:00,48.3,42.1,30.28,ESE,117,1.0,3.0,79,0.00,,---,0.00,VWS V14.01,2013-10-30 06:17:00,
2013-10-30 02:22:00,48.2,42.0,30.28,ESE,108,1.0,1.0,79,0.00,,---,0.00,VWS V14.01,2013-10-30 06:22:00,
2013-10-30 02:27:00,48.1,41.9,30.27,SE,129,0.0,0.0,79,0.00,,---,0.00,VWS V14.01,2013-10-30 06:27:00,
2013-10-30 02:33:00,48.1,41.9,30.27,ESE,116,1.0,1.0,79,0.00,,---,0.00,VWS V14.01,2013-10-30 06:33:00,
2013-10-30 02:38:00,48.1,42.2,30.27,ESE,122,1.0,1.0,80,0.00,,---,0.00,VWS V14.01,2013-10-30 06:38:00,
2013-10-30 02:43:00,48.1,42.2,30.27,ESE,113,2.0,2.0,80,0.00,,---,0.00,VWS V14.01,2013-10-30 06:43:00,
2013-10-30 02:48:00,48.2,42.3,30.27,SE,127,1.0,1.0,80,0.00,,---,0.00,VWS V14.01,2013-10-30 06:48:00,
2013-10-30 02:53:00,48.1,42.2,30.27,SE,128,1.0,2.0,80,0.00,,---,0.00,VWS V14.01,2013-10-30 06:53:00,
2013-10-30 02:58:00,48.1,42.2,30.26,ESE,122,0.0,2.0,80,0.00,,---,0.00,VWS V14.01,2013-10-30 06:58:00,
2013-10-30 03:03:00,48.1,42.5,30.26,SE,139,2.0,2.0,81,0.00,,---,0.00,VWS V14.01,2013-10-30 07:03:00,
2013-10-30 03:08:00,48.1,42.5,30.27,SE,124,1.0,2.0,81,0.00,,---,0.00,VWS V14.01,2013-10-30 07:08:00,
2013-10-30 03:13:00,48.1,42.5,30.26,ESE,103,1.0,2.0,81,0.00,,---,0.00,VWS V14.01,2013-10-30 07:13:00,
2013-10-30 03:18:00,48.1,42.5,30.26,SE,124,1.0,2.0,81,0.00,,---,0.00,VWS V14.01,2013-10-30 07:18:00,
2013-10-30 03:23:00,48.0,42.5,30.26,SE,129,2.0,2.0,81,0.00,,---,0.00,VWS V14.01,2013-10-30 07:23:00,
2013-10-30 03:28:00,47.9,42.4,30.26,SE,124,0.0,2.0,81,0.00,,---,0.00,VWS V14.01,2013-10-30 07:28:00,
2013-10-30 03:33:00,47.8,42.6,30.26,SE,127,0.0,1.0,82,0.00,,---,0.00,VWS V14.01,2013-10-30 07:33:00,
2013-10-30 03:38:00,47.7,42.5,30.27,ESE,121,0.0,1.0,82,0.00,,---,0.00,VWS V14.01,2013-10-30 07:38:00,
2013-10-30 03:43:00,47.7,42.5,30.26,ESE,103,2.0,2.0,82,0.00,,---,0.00,VWS V14.01,2013-10-30 07:43:00,
2013-10-30 03:48:00,47.8,42.6,30.26,SE,125,0.0,2.0,82,0.00,,---,0.00,VWS V14.01,2013-10-30 07:48:00,
2013-10-30 03:53:00,47.8,42.6,30.26,SE,124,2.0,2.0,82,0.00,,---,0.00,VWS V14.01,2013-10-30 07:53:00,
2013-10-30 03:58:00,47.7,42.5,30.25,ESE,111,2.0,2.0,82,0.00,,---,0.00,VWS V14.01,2013-10-30 07:58:00,
2013-10-30 04:04:00,47.7,42.5,30.25,SE,124,1.0,2.0,82,0.00,,---,0.00,VWS V14.01,2013-10-30 08:04:00,
2013-10-30 04:09:00,47.7,42.5,30.25,SE,131,1.0,1.0,82,0.00,,---,0.00,VWS V14.01,2013-10-30 08:09:00,
2013-10-30 04:14:00,47.7,42.5,30.25,ESE,121,1.0,1.0,82,0.00,,---,0.00,VWS V14.01,2013-10-30 08:14:00,
2013-10-30 04:19:00,47.9,43.0,30.25,SE,137,1.0,2.0,83,0.00,,---,0.00,VWS V14.01,2013-10-30 08:19:00,
2013-10-30 04:24:00,48.1,42.9,30.25,ESE,110,2.0,2.0,82,0.00,,---,0.00,VWS V14.01,2013-10-30 08:24:00,
2013-10-30 04:29:00,48.2,43.0,30.25,ESE,113,2.0,2.0,82,0.00,,---,0.00,VWS V14.01,2013-10-30 08:29:00,
2013-10-30 04:34:00,48.1,43.2,30.25,ESE,110,2.0,2.0,83,0.00,,---,0.00,VWS V14.01,2013-10-30 08:34:00,
2013-10-30 04:39:00,48.0,42.8,30.25,ESE,113,1.0,1.0,82,0.00,,---,0.00,VWS V14.01,2013-10-30 08:39:00,
2013-10-30 04:44:00,47.9,43.0,30.25,ESE,122,1.0,2.0,83,0.00,,---,0.00,VWS V14.01,2013-10-30 08:44:00,
2013-10-30 04:49:00,47.8,42.9,30.24,ESE,121,2.0,2.0,83,0.00,,---,0.00,VWS V14.01,2013-10-30 08:49:00,
2013-10-30 04:54:00,47.8,42.9,30.25,ESE,103,0.0,1.0,83,0.00,,---,0.00,VWS V14.01,2013-10-30 08:54:00,
2013-10-30 04:59:00,47.9,43.0,30.25,ESE,113,0.0,1.0,83,0.00,,---,0.00,VWS V14.01,2013-10-30 08:59:00,
2013-10-30 05:04:00,48.0,43.1,30.25,ESE,113,1.0,2.0,83,0.00,,---,0.00,VWS V14.01,2013-10-30 09:04:00,
2013-10-30 05:09:00,48.2,43.0,30.25,ESE,107,1.0,1.0,82,0.00,,---,0.00,VWS V14.01,2013-10-30 09:09:00,
2013-10-30 05:14:00,48.3,43.1,30.25,ESE,107,1.0,1.0,82,0.00,,---,0.00,VWS V14.01,2013-10-30 09:14:00,
2013-10-30 05:20:00,48.4,43.5,30.25,SE,133,1.0,1.0,83,0.00,,---,0.00,VWS V14.01,2013-10-30 09:20:00,
2013-10-30 05:25:00,48.4,43.8,30.25,SE,129,0.0,0.0,84,0.00,,---,0.00,VWS V14.01,2013-10-30 09:25:00,
2013-10-30 05:30:00,48.2,44.2,30.25,East,98,0.0,0.0,86,0.00,,---,0.00,VWS V14.01,2013-10-30 09:30:00,
2013-10-30 05:35:00,47.9,44.5,30.25,East,99,0.0,0.0,88,0.01,,---,0.01,VWS V14.01,2013-10-30 09:35:00,
2013-10-30 05:40:00,47.5,44.4,30.25,East,98,0.0,0.0,89,0.05,,---,0.05,VWS V14.01,2013-10-30 09:40:00,
2013-10-30 05:45:00,47.1,44.6,30.25,ESE,122,0.0,0.0,91,0.06,,---,0.06,VWS V14.01,2013-10-30 09:45:00,
2013-10-30 05:50:00,46.8,44.6,30.25,SE,124,0.0,1.0,92,0.06,,---,0.06,VWS V14.01,2013-10-30 09:50:00,
2013-10-30 05:55:00,46.6,44.7,30.24,SE,131,1.0,1.0,93,0.06,,---,0.06,VWS V14.01,2013-10-30 09:55:00,
2013-10-30 06:00:00,46.4,44.5,30.24,SE,126,1.0,1.0,93,0.06,,---,0.06,VWS V14.01,2013-10-30 10:00:00,
2013-10-30 06:05:00,46.3,44.7,30.24,SE,129,0.0,1.0,94,0.06,,---,0.06,VWS V14.01,2013-10-30 10:05:00,
2013-10-30 06:10:00,46.2,44.6,30.24,SE,136,0.0,0.0,94,0.06,,---,0.06,VWS V14.01,2013-10-30 10:10:00,
2013-10-30 06:15:00,46.1,44.5,30.24,SE,129,0.0,0.0,94,0.06,,---,0.06,VWS V14.01,2013-10-30 10:15:00,
2013-10-30 06:20:00,46.1,44.5,30.24,SE,128,0.0,0.0,94,0.06,,---,0.06,VWS V14.01,2013-10-30 10:20:00,
2013-10-30 06:25:00,46.1,44.5,30.25,ESE,117,1.0,1.0,94,0.06,,---,0.06,VWS V14.01,2013-10-30 10:25:00,
2013-10-30 06:31:00,46.1,44.8,30.25,SE,134,0.0,0.0,95,0.06,,---,0.06,VWS V14.01,2013-10-30 10:31:00,
2013-10-30 06:36:00,46.1,44.8,30.25,SE,136,0.0,0.0,95,0.05,,---,0.06,VWS V14.01,2013-10-30 10:36:00,
2013-10-30 06:41:00,46.2,44.8,30.25,SE,125,0.0,0.0,95,0.01,,---,0.06,VWS V14.01,2013-10-30 10:41:00,
2013-10-30 06:46:00,46.2,44.8,30.25,SE,143,0.0,0.0,95,0.00,,---,0.06,VWS V14.01,2013-10-30 10:46:00,
2013-10-30 06:51:00,46.2,44.8,30.25,SE,139,0.0,1.0,95,0.00,,---,0.06,VWS V14.01,2013-10-30 10:51:00,
2013-10-30 06:56:00,46.2,44.8,30.24,SE,135,0.0,0.0,95,0.00,,---,0.06,VWS V14.01,2013-10-30 10:56:00,
2013-10-30 07:01:00,46.1,44.8,30.25,SE,134,0.0,0.0,95,0.00,,---,0.06,VWS V14.01,2013-10-30 11:01:00,
2013-10-30 07:06:00,46.1,44.8,30.24,SE,135,0.0,1.0,95,0.00,,---,0.06,VWS V14.01,2013-10-30 11:06:00,
2013-10-30 07:11:00,46.1,44.8,30.24,SE,135,0.0,0.0,95,0.00,,---,0.06,VWS V14.01,2013-10-30 11:11:00,
2013-10-30 07:16:00,46.0,44.7,30.24,SE,136,0.0,0.0,95,0.00,,---,0.06,VWS V14.01,2013-10-30 11:16:00,
2013-10-30 07:21:00,46.0,44.7,30.24,SE,136,0.0,0.0,95,0.00,,---,0.06,VWS V14.01,2013-10-30 11:21:00,
2013-10-30 07:26:00,46.0,44.7,30.24,SE,136,0.0,0.0,95,0.00,,---,0.06,VWS V14.01,2013-10-30 11:26:00,
2013-10-30 07:31:00,46.0,44.7,30.24,ESE,121,0.0,0.0,95,0.00,,---,0.06,VWS V14.01,2013-10-30 11:31:00,
2013-10-30 07:36:00,46.1,44.8,30.24,SE,126,0.0,0.0,95,0.00,,---,0.06,VWS V14.01,2013-10-30 11:36:00,
2013-10-30 07:42:00,46.1,44.8,30.24,SE,125,0.0,0.0,95,0.00,,---,0.06,VWS V14.01,2013-10-30 11:42:00,
2013-10-30 07:47:00,46.1,44.8,30.24,ESE,121,0.0,0.0,95,0.00,,---,0.06,VWS V14.01,2013-10-30 11:47:00,
2013-10-30 07:52:00,46.1,44.8,30.24,SE,129,0.0,0.0,95,0.00,,---,0.06,VWS V14.01,2013-10-30 11:52:00,
2013-10-30 07:57:00,46.1,44.8,30.23,ESE,115,0.0,0.0,95,0.00,,---,0.06,VWS V14.01,2013-10-30 11:57:00,
2013-10-30 08:02:00,46.1,44.8,30.24,ESE,114,0.0,0.0,95,0.00,,---,0.06,VWS V14.01,2013-10-30 12:02:00,
2013-10-30 08:07:00,46.1,44.8,30.24,ESE,115,0.0,0.0,95,0.00,,---,0.06,VWS V14.01,2013-10-30 12:07:00,
2013-10-30 08:12:00,46.1,44.8,30.24,ESE,115,0.0,0.0,95,0.00,,---,0.06,VWS V14.01,2013-10-30 12:12:00,
2013-10-30 08:17:00,46.1,44.8,30.24,ESE,114,0.0,0.0,95,0.00,,---,0.06,VWS V14.01,2013-10-30 12:17:00,
2013-10-30 08:22:00,46.1,44.8,30.24,ESE,117,0.0,0.0,95,0.00,,---,0.06,VWS V14.01,2013-10-30 12:22:00,
2013-10-30 08:27:00,46.1,44.8,30.24,SE,124,0.0,0.0,95,0.00,,---,0.06,VWS V14.01,2013-10-30 12:27:00,
2013-10-30 08:33:00,46.1,44.8,30.24,ESE,117,0.0,0.0,95,0.00,,---,0.06,VWS V14.01,2013-10-30 12:33:00,
2013-10-30 08:38:00,46.1,44.8,30.25,ESE,120,0.0,0.0,95,0.00,,---,0.06,VWS V14.01,2013-10-30 12:38:00,
2013-10-30 08:43:00,46.1,44.8,30.25,ESE,117,0.0,0.0,95,0.00,,---,0.06,VWS V14.01,2013-10-30 12:43:00,
2013-10-30 08:48:00,46.1,44.8,30.25,SE,124,0.0,0.0,95,0.00,,---,0.06,VWS V14.01,2013-10-30 12:48:00,
2013-10-30 08:53:00,46.1,44.8,30.25,ESE,109,0.0,0.0,95,0.00,,---,0.06,VWS V14.01,2013-10-30 12:53:00,
2013-10-30 08:58:00,46.3,45.0,30.25,ESE,116,0.0,0.0,95,0.00,,---,0.06,VWS V14.01,2013-10-30 12:58:00,
2013-10-30 09:03:00,46.4,45.0,30.25,ESE,121,0.0,0.0,95,0.00,,---,0.06,VWS V14.01,2013-10-30 13:03:00,
2013-10-30 09:08:00,46.5,45.2,30.25,SE,129,0.0,0.0,95,0.00,,---,0.06,VWS V14.01,2013-10-30 13:08:00,
2013-10-30 09:13:00,46.7,45.3,30.25,ESE,105,0.0,0.0,95,0.00,,---,0.06,VWS V14.01,2013-10-30 13:13:00,
2013-10-30 09:18:00,46.9,45.5,30.25,ESE,109,0.0,0.0,95,0.00,,---,0.06,VWS V14.01,2013-10-30 13:18:00,
2013-10-30 09:24:00,47.0,45.7,30.25,East,101,0.0,0.0,95,0.00,,---,0.06,VWS V14.01,2013-10-30 13:24:00,
2013-10-30 09:29:00,47.3,45.9,30.25,ESE,107,0.0,0.0,95,0.00,,---,0.06,VWS V14.01,2013-10-30 13:29:00,
2013-10-30 09:34:00,47.3,45.9,30.25,ESE,114,0.0,1.0,95,0.00,,---,0.06,VWS V14.01,2013-10-30 13:34:00,
2013-10-30 09:39:00,47.6,46.2,30.25,ESE,122,1.0,1.0,95,0.00,,---,0.06,VWS V14.01,2013-10-30 13:39:00,
2013-10-30 09:44:00,47.8,46.4,30.25,ESE,114,0.0,1.0,95,0.00,,---,0.06,VWS V14.01,2013-10-30 13:44:00,
2013-10-30 09:49:00,48.2,46.8,30.25,ESE,121,0.0,1.0,95,0.00,,---,0.06,VWS V14.01,2013-10-30 13:49:00,
2013-10-30 09:54:00,48.5,47.1,30.25,ESE,104,0.0,0.0,95,0.00,,---,0.06,VWS V14.01,2013-10-30 13:54:00,
2013-10-30 09:59:00,49.0,47.6,30.24,ESE,115,0.0,1.0,95,0.00,,---,0.06,VWS V14.01,2013-10-30 13:59:00,
2013-10-30 10:04:00,49.5,47.8,30.24,ESE,110,0.0,1.0,94,0.00,,---,0.06,VWS V14.01,2013-10-30 14:04:00,
2013-10-30 10:09:00,49.9,48.0,30.24,SE,126,0.0,0.0,93,0.00,,---,0.06,VWS V14.01,2013-10-30 14:09:00,
2013-10-30 10:15:00,50.5,48.3,30.24,East,100,0.0,0.0,92,0.00,,---,0.06,VWS V14.01,2013-10-30 14:15:00,
2013-10-30 10:20:00,51.0,48.8,30.24,East,98,0.0,0.0,92,0.00,,---,0.06,VWS V14.01,2013-10-30 14:20:00,
2013-10-30 10:25:00,51.4,48.6,30.24,East,90,0.0,0.0,90,0.00,,---,0.06,VWS V14.01,2013-10-30 14:25:00,
2013-10-30 10:30:00,51.7,48.9,30.24,ESE,107,0.0,0.0,90,0.00,,---,0.06,VWS V14.01,2013-10-30 14:30:00,
2013-10-30 10:35:00,52.2,49.4,30.24,ESE,105,0.0,1.0,90,0.00,,---,0.06,VWS V14.01,2013-10-30 14:35:00,
2013-10-30 10:40:00,52.6,48.8,30.24,SE,128,1.0,1.0,87,0.00,,---,0.06,VWS V14.01,2013-10-30 14:40:00,
2013-10-30 10:45:00,53.0,48.3,30.24,ESE,117,0.0,1.0,84,0.00,,---,0.06,VWS V14.01,2013-10-30 14:45:00,
2013-10-30 10:50:00,53.4,49.3,30.24,East,91,0.0,0.0,86,0.00,,---,0.06,VWS V14.01,2013-10-30 14:50:00,
2013-10-30 10:55:00,53.8,49.7,30.24,ESE,111,0.0,0.0,86,0.00,,---,0.06,VWS V14.01,2013-10-30 14:55:00,
2013-10-30 11:00:00,54.2,49.5,30.24,ESE,110,0.0,0.0,84,0.00,,---,0.06,VWS V14.01,2013-10-30 15:00:00,
2013-10-30 11:05:00,54.5,50.4,30.24,ESE,113,0.0,0.0,86,0.00,,---,0.06,VWS V14.01,2013-10-30 15:05:00,
2013-10-30 11:10:00,54.8,49.7,30.24,East,86,0.0,0.0,83,0.00,,---,0.06,VWS V14.01,2013-10-30 15:10:00,
2013-10-30 11:15:00,54.9,49.8,30.24,East,85,0.0,0.0,83,0.00,,---,0.06,VWS V14.01,2013-10-30 15:15:00,
2013-10-30 11:21:00,55.1,49.7,30.24,ENE,72,0.0,0.0,82,0.00,,---,0.06,VWS V14.01,2013-10-30 15:21:00,
2013-10-30 11:26:00,55.5,50.1,30.24,SE,128,0.0,1.0,82,0.00,,---,0.06,VWS V14.01,2013-10-30 15:26:00,
2013-10-30 11:31:00,56.1,51.0,30.24,East,100,0.0,1.0,83,0.00,,---,0.06,VWS V14.01,2013-10-30 15:31:00,
2013-10-30 11:36:00,56.7,51.6,30.24,East,93,0.0,0.0,83,0.00,,---,0.06,VWS V14.01,2013-10-30 15:36:00,
2013-10-30 11:41:00,57.1,50.7,30.24,ESE,113,0.0,2.0,79,0.00,,---,0.06,VWS V14.01,2013-10-30 15:41:00,
2013-10-30 11:46:00,57.5,51.4,30.24,ESE,115,0.0,0.0,80,0.00,,---,0.06,VWS V14.01,2013-10-30 15:46:00,
2013-10-30 11:51:00,58.0,51.2,30.24,East,100,0.0,0.0,78,0.00,,---,0.06,VWS V14.01,2013-10-30 15:51:00,
2013-10-30 11:56:00,58.4,51.2,30.24,ENE,74,0.0,0.0,77,0.00,,---,0.06,VWS V14.01,2013-10-30 15:56:00,
2013-10-30 12:01:00,58.7,51.2,30.24,SW,230,0.0,0.0,76,0.00,,---,0.06,VWS V14.01,2013-10-30 16:01:00,
2013-10-30 12:06:00,59.5,51.9,30.23,SE,132,0.0,0.0,76,0.00,,---,0.06,VWS V14.01,2013-10-30 16:06:00,
2013-10-30 12:11:00,60.2,52.3,30.23,East,84,0.0,0.0,75,0.00,,---,0.06,VWS V14.01,2013-10-30 16:11:00,
2013-10-30 12:17:00,60.3,52.0,30.23,SE,128,0.0,0.0,74,0.00,,---,0.06,VWS V14.01,2013-10-30 16:17:00,
2013-10-30 12:22:00,60.7,52.7,30.23,SE,124,0.0,0.0,75,0.00,,---,0.06,VWS V14.01,2013-10-30 16:22:00,
2013-10-30 12:29:00,60.8,51.7,30.22,East,94,0.0,0.0,72,0.00,,---,0.06,VWS V14.01,2013-10-30 16:29:00,
2013-10-30 12:34:00,60.9,52.2,30.22,ESE,114,0.0,0.0,73,0.00,,---,0.06,VWS V14.01,2013-10-30 16:34:00,
2013-10-30 12:39:00,60.9,51.8,30.22,ESE,108,0.0,0.0,72,0.00,,---,0.06,VWS V14.01,2013-10-30 16:39:00,
2013-10-30 12:44:00,60.9,53.3,30.22,East,91,0.0,0.0,76,0.00,,---,0.06,VWS V14.01,2013-10-30 16:44:00,
2013-10-30 12:50:00,61.3,53.3,30.21,East,88,0.0,0.0,75,0.00,,---,0.06,VWS V14.01,2013-10-30 16:50:00,
2013-10-30 12:55:00,61.6,51.7,30.21,NW,323,0.0,0.0,70,0.00,,---,0.06,VWS V14.01,2013-10-30 16:55:00,
2013-10-30 13:00:00,61.8,51.9,30.21,ESE,118,0.0,0.0,70,0.00,,---,0.06,VWS V14.01,2013-10-30 17:00:00,
2013-10-30 13:05:00,62.1,53.0,30.20,WSW,257,0.0,1.0,72,0.00,,---,0.06,VWS V14.01,2013-10-30 17:05:00,
2013-10-30 13:10:00,62.1,53.0,30.20,ENE,70,0.0,0.0,72,0.00,,---,0.06,VWS V14.01,2013-10-30 17:10:00,
2013-10-30 13:15:00,62.0,52.1,30.20,NNE,26,0.0,0.0,70,0.00,,---,0.06,VWS V14.01,2013-10-30 17:15:00,
2013-10-30 13:20:00,62.0,52.5,30.19,NE,49,0.0,0.0,71,0.00,,---,0.06,VWS V14.01,2013-10-30 17:20:00,
2013-10-30 13:25:00,62.1,52.6,30.19,SE,128,0.0,0.0,71,0.00,,---,0.06,VWS V14.01,2013-10-30 17:25:00,
2013-10-30 13:30:00,62.4,52.5,30.19,South,170,0.0,0.0,70,0.00,,---,0.06,VWS V14.01,2013-10-30 17:30:00,
2013-10-30 13:35:00,62.7,52.4,30.19,SW,235,0.0,0.0,69,0.00,,---,0.06,VWS V14.01,2013-10-30 17:35:00,
2013-10-30 13:40:00,62.9,53.4,30.18,ESE,115,0.0,0.0,71,0.00,,---,0.06,VWS V14.01,2013-10-30 17:40:00,
2013-10-30 13:45:00,62.9,52.6,30.18,NNW,342,0.0,0.0,69,0.00,,---,0.06,VWS V14.01,2013-10-30 17:45:00,
2013-10-30 13:50:00,63.2,53.7,30.18,NNW,343,0.0,0.0,71,0.00,,---,0.06,VWS V14.01,2013-10-30 17:50:00,
2013-10-30 13:55:00,63.5,53.2,30.18,North,5,0.0,0.0,69,0.00,,---,0.06,VWS V14.01,2013-10-30 17:55:00,
2013-10-30 14:00:00,63.7,53.0,30.18,NNW,328,0.0,0.0,68,0.00,,---,0.06,VWS V14.01,2013-10-30 18:00:00,
2013-10-30 14:05:00,63.7,53.0,30.18,NNW,343,0.0,1.0,68,0.00,,---,0.06,VWS V14.01,2013-10-30 18:05:00,
2013-10-30 14:10:00,63.5,52.0,30.18,WSW,256,0.0,0.0,66,0.00,,---,0.06,VWS V14.01,2013-10-30 18:10:00,
2013-10-30 14:15:00,63.4,52.7,30.17,WSW,252,0.0,0.0,68,0.00,,---,0.06,VWS V14.01,2013-10-30 18:15:00,
2013-10-30 14:21:00,63.1,52.0,30.17,West,274,0.0,0.0,67,0.00,,---,0.06,VWS V14.01,2013-10-30 18:21:00,
2013-10-30 14:26:00,62.8,52.5,30.17,NNE,28,0.0,0.0,69,0.00,,---,0.06,VWS V14.01,2013-10-30 18:26:00,
2013-10-30 14:31:00,62.8,52.5,30.17,NNW,339,0.0,0.0,69,0.00,,---,0.06,VWS V14.01,2013-10-30 18:31:00,
2013-10-30 14:36:00,63.0,52.3,30.17,West,273,0.0,1.0,68,0.00,,---,0.06,VWS V14.01,2013-10-30 18:36:00,
2013-10-30 14:41:00,62.8,52.1,30.17,West,263,1.0,2.0,68,0.00,,---,0.06,VWS V14.01,2013-10-30 18:41:00,
2013-10-30 14:46:00,62.6,52.3,30.16,WNW,284,0.0,0.0,69,0.00,,---,0.06,VWS V14.01,2013-10-30 18:46:00,
2013-10-30 14:51:00,62.6,51.9,30.16,North,8,0.0,0.0,68,0.00,,---,0.06,VWS V14.01,2013-10-30 18:51:00,
2013-10-30 14:56:00,62.5,52.6,30.16,North,7,0.0,0.0,70,0.00,,---,0.06,VWS V14.01,2013-10-30 18:56:00,
2013-10-30 15:01:00,62.5,51.8,30.16,North,8,0.0,0.0,68,0.00,,---,0.06,VWS V14.01,2013-10-30 19:01:00,
2013-10-30 15:06:00,62.4,52.1,30.16,SW,214,0.0,0.0,69,0.00,,---,0.06,VWS V14.01,2013-10-30 19:06:00,
2013-10-30 15:11:00,62.4,51.7,30.15,WNW,291,0.0,0.0,68,0.00,,---,0.06,VWS V14.01,2013-10-30 19:11:00,
2013-10-30 15:16:00,62.4,52.1,30.15,WNW,291,0.0,0.0,69,0.00,,---,0.06,VWS V14.01,2013-10-30 19:16:00,
2013-10-30 15:22:00,62.4,52.1,30.15,West,272,0.0,0.0,69,0.00,,---,0.06,VWS V14.01,2013-10-30 19:22:00,
2013-10-30 15:27:00,62.3,52.0,30.15,West,271,0.0,0.0,69,0.00,,---,0.06,VWS V14.01,2013-10-30 19:27:00,
2013-10-30 15:32:00,62.2,52.3,30.15,West,271,0.0,0.0,70,0.00,,---,0.06,VWS V14.01,2013-10-30 19:32:00,
2013-10-30 15:37:00,62.1,52.2,30.15,West,272,0.0,0.0,70,0.00,,---,0.06,VWS V14.01,2013-10-30 19:37:00,
2013-10-30 15:42:00,62.1,52.6,30.15,WNW,289,0.0,0.0,71,0.00,,---,0.06,VWS V14.01,2013-10-30 19:42:00,
2013-10-30 15:47:00,62.1,52.2,30.15,WNW,290,0.0,0.0,70,0.00,,---,0.06,VWS V14.01,2013-10-30 19:47:00,
2013-10-30 15:52:00,62.0,52.5,30.15,ENE,60,0.0,0.0,71,0.00,,---,0.06,VWS V14.01,2013-10-30 19:52:00,
2013-10-30 15:57:00,62.0,51.7,30.15,SE,129,0.0,0.0,69,0.00,,---,0.06,VWS V14.01,2013-10-30 19:57:00,
2013-10-30 16:02:00,61.9,52.0,30.15,SE,129,0.0,0.0,70,0.00,,---,0.06,VWS V14.01,2013-10-30 20:02:00,
2013-10-30 16:07:00,61.8,52.3,30.15,SE,128,0.0,0.0,71,0.00,,---,0.06,VWS V14.01,2013-10-30 20:07:00,
2013-10-30 16:12:00,61.6,51.7,30.15,SSW,195,0.0,0.0,70,0.00,,---,0.06,VWS V14.01,2013-10-30 20:12:00,
2013-10-30 16:17:00,61.6,52.5,30.15,SSW,194,0.0,0.0,72,0.00,,---,0.06,VWS V14.01,2013-10-30 20:17:00,
2013-10-30 16:23:00,61.5,52.8,30.15,SSW,195,0.0,0.0,73,0.00,,---,0.06,VWS V14.01,2013-10-30 20:23:00,
2013-10-30 16:28:00,61.3,52.6,30.15,SSW,194,0.0,0.0,73,0.00,,---,0.06,VWS V14.01,2013-10-30 20:28:00,
2013-10-30 16:33:00,61.1,52.4,30.15,SSW,194,0.0,0.0,73,0.00,,---,0.06,VWS V14.01,2013-10-30 20:33:00,
2013-10-30 16:38:00,61.0,52.7,30.15,SSW,195,0.0,0.0,74,0.00,,---,0.06,VWS V14.01,2013-10-30 20:38:00,
2013-10-30 16:43:00,60.9,52.6,30.15,SSW,195,0.0,0.0,74,0.00,,---,0.06,VWS V14.01,2013-10-30 20:43:00,
2013-10-30 16:48:00,60.7,52.4,30.15,SSW,194,0.0,0.0,74,0.00,,---,0.06,VWS V14.01,2013-10-30 20:48:00,
2013-10-30 16:53:00,60.6,52.3,30.15,SSW,194,0.0,0.0,74,0.00,,---,0.06,VWS V14.01,2013-10-30 20:53:00,
2013-10-30 16:58:00,60.4,52.5,30.14,SSW,195,0.0,0.0,75,0.00,,---,0.06,VWS V14.01,2013-10-30 20:58:00,
2013-10-30 17:03:00,60.1,52.5,30.14,SSW,194,0.0,0.0,76,0.00,,---,0.06,VWS V14.01,2013-10-30 21:03:00,
2013-10-30 17:09:00,59.9,52.3,30.15,SSW,194,0.0,0.0,76,0.00,,---,0.06,VWS V14.01,2013-10-30 21:09:00,
2013-10-30 17:14:00,59.7,52.5,30.15,SSW,194,0.0,0.0,77,0.00,,---,0.06,VWS V14.01,2013-10-30 21:14:00,
2013-10-30 17:19:00,59.6,52.4,30.15,SSW,194,0.0,0.0,77,0.00,,---,0.06,VWS V14.01,2013-10-30 21:19:00,
2013-10-30 17:24:00,59.4,52.5,30.15,SSW,194,0.0,0.0,78,0.00,,---,0.06,VWS V14.01,2013-10-30 21:24:00,
2013-10-30 17:29:00,59.2,52.3,30.15,SSW,194,0.0,0.0,78,0.00,,---,0.06,VWS V14.01,2013-10-30 21:29:00,
2013-10-30 17:34:00,59.1,52.3,30.15,SSW,195,0.0,0.0,78,0.00,,---,0.06,VWS V14.01,2013-10-30 21:34:00,
2013-10-30 17:39:00,58.9,52.4,30.15,SSW,194,0.0,0.0,79,0.00,,---,0.06,VWS V14.01,2013-10-30 21:39:00,
2013-10-30 17:44:00,58.8,52.3,30.15,SSW,194,0.0,0.0,79,0.00,,---,0.06,VWS V14.01,2013-10-30 21:44:00,
2013-10-30 17:49:00,58.6,52.5,30.16,SSW,194,0.0,0.0,80,0.00,,---,0.06,VWS V14.01,2013-10-30 21:49:00,
2013-10-30 17:54:00,58.5,52.4,30.16,SSW,194,0.0,0.0,80,0.00,,---,0.06,VWS V14.01,2013-10-30 21:54:00,
2013-10-30 17:59:00,58.4,52.3,30.16,SSW,194,0.0,0.0,80,0.00,,---,0.06,VWS V14.01,2013-10-30 21:59:00,
2013-10-30 18:04:00,58.4,52.3,30.16,SSW,194,0.0,0.0,80,0.00,,---,0.06,VWS V14.01,2013-10-30 22:04:00,
2013-10-30 18:10:00,58.4,52.3,30.16,SSW,194,0.0,0.0,80,0.00,,---,0.06,VWS V14.01,2013-10-30 22:10:00,
2013-10-30 18:15:00,58.3,52.2,30.16,SSW,194,0.0,0.0,80,0.00,,---,0.06,VWS V14.01,2013-10-30 22:15:00,
2013-10-30 18:20:00,58.2,52.1,30.16,SSW,194,0.0,0.0,80,0.00,,---,0.06,VWS V14.01,2013-10-30 22:20:00,
2013-10-30 18:25:00,58.2,52.1,30.17,SSW,194,0.0,0.0,80,0.00,,---,0.06,VWS V14.01,2013-10-30 22:25:00,
2013-10-30 18:30:00,58.1,52.0,30.17,SSW,194,0.0,0.0,80,0.00,,---,0.06,VWS V14.01,2013-10-30 22:30:00,
2013-10-30 18:35:00,58.1,52.0,30.17,SSW,194,0.0,0.0,80,0.00,,---,0.06,VWS V14.01,2013-10-30 22:35:00,
2013-10-30 18:40:00,58.1,52.0,30.17,SSW,195,0.0,0.0,80,0.00,,---,0.06,VWS V14.01,2013-10-30 22:40:00,
2013-10-30 18:45:00,58.2,52.1,30.17,SSW,193,0.0,0.0,80,0.00,,---,0.06,VWS V14.01,2013-10-30 22:45:00,
2013-10-30 18:50:00,58.3,52.2,30.16,SSW,193,0.0,0.0,80,0.00,,---,0.06,VWS V14.01,2013-10-30 22:50:00,
2013-10-30 18:55:00,58.4,52.3,30.17,SSW,194,0.0,0.0,80,0.00,,---,0.06,VWS V14.01,2013-10-30 22:55:00,
2013-10-30 19:00:00,58.5,52.4,30.17,SSW,193,0.0,0.0,80,0.00,,---,0.06,VWS V14.01,2013-10-30 23:00:00,
2013-10-30 19:05:00,58.6,52.5,30.17,South,173,0.0,0.0,80,0.00,,---,0.06,VWS V14.01,2013-10-30 23:05:00,
2013-10-30 19:10:00,58.7,52.6,30.18,South,172,0.0,0.0,80,0.00,,---,0.06,VWS V14.01,2013-10-30 23:10:00,
2013-10-30 19:15:00,58.7,52.6,30.18,South,172,0.0,0.0,80,0.00,,---,0.06,VWS V14.01,2013-10-30 23:15:00,
2013-10-30 19:21:00,58.8,52.7,30.18,South,170,0.0,0.0,80,0.00,,---,0.06,VWS V14.01,2013-10-30 23:21:00,
2013-10-30 19:28:00,58.8,52.3,30.18,SSE,157,0.0,0.0,79,0.00,,---,0.06,VWS V14.01,2013-10-30 23:28:00,
2013-10-30 19:33:00,58.8,52.3,30.18,SSE,156,0.0,0.0,79,0.00,,---,0.06,VWS V14.01,2013-10-30 23:33:00,
2013-10-30 19:38:00,58.7,52.6,30.18,SSE,156,0.0,0.0,80,0.00,,---,0.06,VWS V14.01,2013-10-30 23:38:00,
2013-10-30 19:43:00,58.6,52.5,30.18,SSE,156,0.0,0.0,80,0.00,,---,0.06,VWS V14.01,2013-10-30 23:43:00,
2013-10-30 19:48:00,58.4,52.3,30.18,SE,134,0.0,0.0,80,0.00,,---,0.06,VWS V14.01,2013-10-30 23:48:00,
2013-10-30 19:53:00,58.4,52.6,30.18,SE,144,0.0,0.0,81,0.00,,---,0.06,VWS V14.01,2013-10-30 23:53:00,
2013-10-30 19:58:00,58.3,52.5,30.18,SE,145,0.0,0.0,81,0.00,,---,0.06,VWS V14.01,2013-10-30 23:58:00,
2013-10-30 20:03:00,58.2,52.4,30.18,SSE,152,0.0,0.0,81,0.00,,---,0.06,VWS V14.01,2013-10-31 00:03:00,
2013-10-30 20:08:00,58.0,52.2,30.17,SE,143,0.0,1.0,81,0.00,,---,0.06,VWS V14.01,2013-10-31 00:08:00,
2013-10-30 20:13:00,57.9,52.5,30.18,ESE,105,0.0,0.0,82,0.00,,---,0.06,VWS V14.01,2013-10-31 00:13:00,
2013-10-30 20:18:00,57.8,52.3,30.18,SE,146,0.0,0.0,82,0.00,,---,0.06,VWS V14.01,2013-10-31 00:18:00,
2013-10-30 20:24:00,57.7,52.6,30.18,SE,133,0.0,1.0,83,0.00,,---,0.06,VWS V14.01,2013-10-31 00:24:00,
2013-10-30 20:29:00,57.7,52.6,30.18,ESE,112,0.0,1.0,83,0.00,,---,0.06,VWS V14.01,2013-10-31 00:29:00,
2013-10-30 20:34:00,57.7,52.6,30.18,SE,124,0.0,0.0,83,0.00,,---,0.06,VWS V14.01,2013-10-31 00:34:00,